Total_Precipitation_Accumulation
1.42 1.39 1.31 1.34 1.23 1.13 1.19 1.28 1.31 1.36 1.27 1.13 1.08 1.11 1.22 1.21 1.30 1.54 2.00 2.68 3.29 3.72 3.86 3.71 3.57 3.45 3.44 3.46 3.68 3.86 3.97 4.11 3.94 3.77 3.59 3.40 3.46 3.47 3.10 3.03 3.18 3.46 3.82
1.45 1.50 1.41 1.33 1.27 1.20 1.22 1.40 1.36 1.37 1.36 1.30 1.13 1.15 1.20 1.19 1.23 1.30 1.51 2.00 2.51 3.06 3.68 4.03 3.85 3.63 3.45 3.42 3.48 3.61 3.81 3.86 3.54 3.43 3.43 3.49 3.65 3.73 3.34 3.21 3.14 3.14 3.44
1.28 1.37 1.36 1.29 1.26 1.28 1.30 1.35 1.38 1.45 1.38 1.29 1.25 1.22 1.21 1.17 1.11 1.18 1.16 1.32 1.52 2.07 2.80 3.39 3.74 3.82 3.81 3.68 3.61 3.64 3.75 3.54 3.27 3.37 3.53 3.56 3.54 3.56 3.51 3.32 3.12 3.08 3.23
1.37 1.39 1.41 1.35 1.35 1.38 1.37 1.41 1.48 1.48 1.44 1.42 1.38 1.34 1.22 1.20 1.15 1.14 1.09 1.10 1.19 1.27 1.67 2.18 2.73 3.23 3.55 3.70 3.85 3.98 3.76 3.32 3.06 3.03 3.17 3.02 2.94 3.06 3.20 3.15 2.99 2.90 2.85
1.43 1.54 1.56 1.54 1.47 1.50 1.51 1.46 1.49 1.41 1.42 1.43 1.34 1.36 1.31 1.28 1.22 1.09 1.12 1.10 1.11 1.09 1.24 1.43 1.72 2.14 2.65 3.16 3.76 4.02 3.56 3.20 2.96 2.73 2.65 2.57 2.62 2.74 2.79 2.63 2.56 2.55 2.55
1.67 1.84 1.90 1.79 1.74 1.73 1.72 1.67 1.72 1.61 1.49 1.52 1.38 1.36 1.34 1.26 1.28 1.26 1.24 1.17 1.21 1.17 1.17 1.22 1.32 1.46 1.97 2.37 3.14 3.57 3.41 3.21 2.96 2.79 2.58 2.52 2.62 2.72 2.69 2.58 2.54 2.56 2.58
1.96 2.11 2.02 2.09 2.09 1.96 1.94 2.00 2.06 2.02 1.83 1.67 1.72 1.61 1.35 1.18 1.25 1.22 1.24 1.30 1.31 1.40 1.41 1.33 1.36 1.49 1.74 1.91 2.42 3.00 3.24 3.15 3.10 2.92 2.76 2.68 2.60 2.61 2.60 2.58 2.60 2.64 2.73
2.17 2.19 2.27 2.37 2.38 2.39 2.32 2.20 2.33 2.50 2.22 1.97 2.09 2.38 1.98 1.63 1.28 1.05 1.16 1.26 1.33 1.57 1.61 1.42 1.29 1.36 1.59 1.80 1.71 2.04 2.45 2.80 3.02 3.08 2.96 2.82 2.70 2.71 2.77 2.64 2.57 2.67 2.72
2.40 2.41 2.47 2.52 2.53 2.39 2.39 2.50 2.63 2.98 2.79 2.41 2.21 2.52 2.36 2.04 1.73 1.28 1.15 1.25 1.36 1.51 1.61 1.67 1.59 1.51 1.50 1.62 1.63 1.47 1.66 2.13 2.61 2.99 3.08 3.02 2.87 3.08 3.26 3.01 2.70 2.55 2.42
2.39 2.47 2.46 2.43 2.39 2.34 2.41 2.49 2.54 2.97 3.21 2.92 2.55 2.14 1.92 1.90 2.03 1.75 1.30 1.25 1.36 1.38 1.49 1.58 1.57 1.69 1.65 1.70 1.76 1.53 1.41 1.71 2.16 2.70 3.11 3.43 3.25 3.07 3.04 3.12 2.95 2.59 2.34
2.29 2.29 2.27 2.35 2.35 2.37 2.45 2.62 2.76 3.02 3.08 3.11 2.91 2.65 2.41 2.12 1.80 1.90 1.85 1.56 1.48 1.38 1.46 1.58 1.64 1.80 1.84 1.87 2.05 1.82 1.52 1.43 1.69 2.19 2.80 3.40 3.63 3.36 3.03 2.97 2.95 2.77 2.47
2.24 2.17 2.13 2.18 2.29 2.41 2.46 2.56 2.75 3.01 3.15 3.27 3.17 2.87 2.76 2.60 2.33 2.24 1.98 1.82 1.77 1.52 1.47 1.52 1.57 1.73 1.93 2.01 2.00 2.16 1.81 1.41 1.38 1.72 2.10 2.76 3.45 3.61 3.42 3.31 3.26 3.13 2.88
1.92 1.98 2.05 2.14 2.26 2.33 2.40 2.52 2.66 2.73 2.87 3.15 3.18 2.99 2.76 2.59 2.58 2.45 2.34 2.04 1.83 1.57 1.54 1.55 1.53 1.59 1.65 1.95 2.09 2.22 1.87 1.51 1.28 1.34 1.58 1.95 2.49 3.04 3.33 3.35 3.37 3.49 3.50
1.83 1.77 1.81 1.88 2.10 2.28 2.36 2.45 2.46 2.46 2.54 2.75 2.76 2.84 2.80 2.54 2.51 2.42 2.44 2.59 2.28 1.97 1.76 1.54 1.47 1.53 1.58 1.79 2.12 2.22 1.78 1.63 1.38 1.26 1.29 1.51 1.74 1.97 2.41 2.93 3.27 3.49 3.72
1.61 1.56 1.61 1.64 1.75 1.95 2.19 2.34 2.31 2.25 2.23 2.40 2.46 2.56 2.69 2.73 2.64 2.56 2.56 2.71 2.72 2.43 2.14 1.84 1.62 1.50 1.58 1.69 2.11 2.03 1.81 1.76 1.65 1.43 1.27 1.32 1.39 1.54 1.72 2.10 2.40 2.64 2.85
1.45 1.38 1.40 1.52 1.67 1.76 1.92 2.12 2.20 2.16 2.19 2.28 2.39 2.51 2.65 2.79 2.82 2.61 2.59 2.63 2.55 2.54 2.36 1.92 1.65 1.56 1.62 1.60 1.97 1.96 1.92 2.03 1.79 1.63 1.51 1.40 1.42 1.39 1.46 1.66 1.75 1.87 1.88
1.29 1.27 1.41 1.51 1.58 1.67 1.83 2.06 2.21 2.22 2.17 2.19 2.19 2.27 2.47 2.60 2.82 2.77 2.66 2.61 2.54 2.46 2.36 2.09 1.82 1.66 1.72 1.74 1.86 1.98 1.98 1.91 1.74 1.73 1.54 1.39 1.36 1.38 1.38 1.49 1.63 1.61 1.55
1.05 1.15 1.28 1.32 1.36 1.38 1.58 1.87 2.06 2.12 2.11 2.02 1.97 2.09 2.33 2.53 2.74 2.85 2.80 2.69 2.65 2.53 2.45 2.43 2.23 1.99 1.87 1.87 2.02 2.11 2.06 2.00 1.95 1.98 1.79 1.56 1.46 1.38 1.37 1.37 1.46 1.61 1.59
1.10 1.20 1.24 1.27 1.30 1.35 1.38 1.51 1.71 1.85 1.85 1.81 1.82 1.84 1.87 2.08 2.39 2.60 2.65 2.72 2.75 2.72 2.72 2.61 2.46 2.37 2.23 2.01 2.11 2.18 2.14 2.16 2.05 2.13 2.09 1.93 1.78 1.64 1.53 1.47 1.48 1.54 1.59
1.09 1.18 1.20 1.25 1.33 1.38 1.38 1.40 1.42 1.49 1.54 1.63 1.67 1.68 1.72 1.77 2.02 2.25 2.34 2.51 2.75 2.81 2.90 2.87 2.62 2.52 2.49 2.22 2.25 2.38 2.45 2.35 2.25 2.11 2.14 2.03 1.97 1.86 1.74 1.60 1.53 1.48 1.49
1.00 1.08 1.13 1.14 1.18 1.28 1.38 1.43 1.31 1.28 1.37 1.46 1.45 1.40 1.44 1.62 1.84 1.98 1.97 2.24 2.58 2.80 2.88 2.88 2.72 2.70 2.54 2.36 2.20 2.17 2.32 2.52 2.50 2.42 2.34 2.08 1.96 1.80 1.79 1.80 1.64 1.47 1.44
0.99 1.02 0.97 0.98 1.06 1.09 1.36 1.40 1.24 1.15 1.20 1.31 1.39 1.38 1.27 1.29 1.42 1.55 1.61 1.76 2.02 2.26 2.59 2.83 2.77 2.68 2.41 2.26 2.22 2.19 2.21 2.30 2.47 2.41 2.40 2.41 2.31 2.19 2.06 1.95 1.94 1.79 1.66
0.98 0.99 0.95 0.94 0.96 1.09 1.23 1.13 1.17 1.10 1.13 1.19 1.28 1.37 1.28 1.18 1.35 1.37 1.51 1.60 1.57 1.66 2.00 2.39 2.55 2.58 2.56 2.45 2.37 2.21 2.16 2.23 2.26 2.28 2.45 2.49 2.43 2.41 2.32 2.32 2.41 2.19 1.98
0.97 0.97 1.01 1.01 1.00 1.07 1.12 1.03 1.13 1.08 1.05 1.09 1.22 1.33 1.38 1.31 1.36 1.50 1.46 1.47 1.41 1.42 1.71 1.74 1.98 2.38 2.53 2.56 2.45 2.45 2.59 2.55 2.38 2.26 2.28 2.33 2.22 2.24 2.28 2.30 2.46 2.34 2.17
1.00 1.03 1.08 1.08 0.99 0.99 1.10 1.05 1.09 1.05 1.04 1.06 1.09 1.18 1.28 1.22 1.48 1.64 1.51 1.62 1.62 1.52 1.78 1.91 1.98 2.08 2.26 2.44 2.47 2.40 2.43 2.50 2.46 2.35 2.16 2.05 1.96 2.00 2.11 2.13 2.13 2.22 2.18
0.87 0.98 1.01 1.01 1.02 0.99 1.23 1.17 1.16 1.04 1.06 1.13 1.15 1.12 1.32 1.35 1.53 1.55 1.39 1.59 1.64 1.60 1.61 1.68 1.68 1.71 1.66 1.85 2.14 2.18 2.37 2.43 2.33 2.25 1.96 1.86 1.83 1.93 2.02 1.82 1.66 1.65 1.64